FENGYUN 1C DEB, 30362

Orbit data source: Space-Track

FENGYUN 1C DEB, 30362 is space debris in SSO originally from a launch on Mon, 10 May 1999 UTC launched from the Taiyaun Space Center, China (TSC). Fengyun 1C debris stems from the Chinese weather satellite Fengyun-1C, which was intentionally destroyed by a Chinese anti-satellite missile in 2007. This event dramatically increased the amount of space debris, with thousands of trackable fragments posing hazards to satellites and human spaceflight. The Fengyun 1C debris cloud has become a focal point in discussions about space sustainability and the need for international regulations to prevent the creation of new debris.

Loading next visibility...
Identifier
30362, 1999-025ABZ
Orbit
SSO
Country
Flag of CNCN / PRC
Related business
Manufacturer
Unknown
Mission
Spacecraft
Bus & Motor
Unknown
Mass
Unknown
Launch date (UTC)
1999-05-10 (27 years ago)
Launch vehicle
Unknown
Launch site
Taiyaun Space Center, China (TSC)
Object type
Payload
Rocket body
Debris
Shape & HBR
Unknown shape, 0.1 m
Radar Cross Section
Small (<0.1 m²)

Expand to show TLE details & history
Last TLE update: 14 hours ago

TLE from 14 hours ago
0 FENGYUN 1C DEB
1 30362U 99025ABZ 26071.35352995  .00004274  00000-0  22358-2 0  9995
2 30362  99.0518   0.0326 0093664  88.6716 272.5183 14.12632125974334
Epoch: 2026-03-12T08:29Z
TLE epoch observation values (Epoch: 2026-03-12T08:29:04.987Z)
Latitude
-0.00007°
Longitude
62.7572°
Altitude
850.93 km
Speed
7.428 km/s
True Right ascension
00h 00m 07s
True Declination
0° 00' 00"
Sunlit
Object was in daylight at epoch
Visualization orbit readout
Latitude
Unknown
Longitude
Unknown
Altitude
Unknown
Speed
Unknown
Apparent Right ascension
Unknown
Apparent Declination
Unknown
Sunlit
N/A
Visualization observer readout
Local Sidereal Time
02:24:51
Azimuth
Unknown
Elevation
Unknown
Doppler factor
Unknown
Orbital elements
Apogee altitude
915.242 km
Perigee altitude
779.885 km
Semi-major axis
7,225.7 km
Eccentricity
0.00937
Inclination
99.0518°
RAAN
0.0326°
Arg. of periapsis
88.6716°
True anomaly
271.44554°
Mean anomaly
272.5183°
Eccentric anomaly
271.98197°
Mean motion
3.53365 °/min
Orbital period
101.88 mins
BSTAR
0.0022358
Loading maneuver chart data...
Computing Atmospheric mass density...

Documentation

Showing up to 5 results
|